Regional Weather Roundup
Issued by NWS Newport/Morehead, NC

Current Version | Previous Version | Text Only | Print | Product List | Glossary On
Versions: 1 2 3 4 5 6 7 8 9 10 11 12 13 14 15 16 17 18 19 20 21 22 23 24 25 26 27 28 29 30 31 32 33 34 35 36 37 38 39 40 41 42 43 44 45 46 47 48 49 50
000
ASUS42 KMHX 221524
RWRMHX
WEATHER ROUNDUP FOR EASTERN NORTH CAROLINA
NATIONAL WEATHER SERVICE NEWPORT/MOREHEAD CITY NC
1100 AM EDT SAT APR 22 2017

NOTE: "FAIR" INDICATES FEW OR NO CLOUDS BELOW 12,000 FEET
WITH NO SIGNIFICANT WEATHER AND/OR OBSTRUCTIONS TO VISIBILITY

NCZ015>017-031-032-045>047-102-103-221600-
NORTH COAST

CITY           SKY/WX    TMP DP  RH WIND       PRES   REMARKS
EDENTON        SUNNY     78  64  61 SW8       29.90S
ELIZABETH CITY SUNNY     75  66  73 SW13      29.88R
KITTY HAWK     SUNNY     78  60  52 SW9       29.88S
MANTEO         SUNNY     78  62  57 W14       29.89F

$$

NCZ045>047-081-094-103-104-221600-
CENTRAL COAST

CITY           SKY/WX    TMP DP  RH WIND       PRES   REMARKS
FRISCO         PTSUNNY   74  66  76 SW12G22   29.94R HAZE

$$

NCZ095-097-098-100-101-221600-
SOUTHERN COAST

CITY           SKY/WX    TMP DP  RH WIND       PRES   REMARKS
BEAUFORT       MOSUNNY   75  70  84 SW17      29.95S
CEDAR ISLAND   NOT AVBL
JACKSONVILLE   SUNNY     80  66  62 SW9       29.93S
PINEY ISLAND   MOSUNNY  N/A N/A N/A SW15G22   29.93S
WILMINGTON     MOSUNNY   80  64  58 SW13      29.94F


$$

NCZ011>013-027>030-043-044-078>080-089-090>093-098-221600-
COASTAL PLAIN

CITY           SKY/WX    TMP DP  RH WIND       PRES   REMARKS
AHOSKIE          N/A     75  65  72 CALM      29.89R
CLINTON        SUNNY     78  65  64 SW7       29.92F
ELIZABETHTOWN  SUNNY     79  64  59 SW8       29.93S
GOLDSBORO      SUNNY     78  65  63 SW15      29.89F
GREENVILLE     SUNNY     79  61  53 SW9G17    29.92F
HAVELOCK       NOT AVBL
KENANSVILLE    SUNNY     79  64  61 SW9       29.92S
KINSTON        SUNNY     79  61  53 SW14G20   29.92S
NEW BERN       SUNNY     79  65  62 SW10      29.93F
RICHLANDS      SUNNY     79  65  62 SW12G20   29.94S
ROCKY MOUNT    CLOUDY    77  63  61 SW12      29.89S
WASHINGTON     SUNNY     79  62  56 SW14      29.90F
WHITEVILLE     SUNNY     79  64  60 SW10G20   29.94S

$$

AMZ130-135-150-152-154-156-158-170-250-252-270-ANZ085-086-088-633-658-670-221600-
MARINE OBSERVATIONS

STATION/POSITION TIME  TEMP    WIND        PRES    WAVE   SWELL
                       AIR SEA DIR/SP/G            HT/PER HT/PER
                 (UTC) (F)     (DEG/KT/KT) (MB)    (FT/S) (FT/S)
CHESAPEAKE LIGHT NOT AVBL
64 E VA BEACH    1450   60 56  230/ 10/ 12 1012.2    4/11   3/11
DUCK             1500   74 54  230/ 12/ 15 1011.3
2 E DUCK         1500      57                N/A     3/11   2/11
OREGON INLET     1500   74 73  210/ 19/ 22 1012.0
13E OREGON INLT  1448      62                N/A     4/12   3/12
HATTERAS CG      1500   72 70  220/  9/ 15 1013.6
DIAMOND BUOY     1450   74 75  250/ 21/ 25 1013.8    5/ 4   2/12
CAPE LOOKOUT     1500   72     230/ 11/ 15 1014.2
BEAUFORT LAB     1500   73 67  220/  8/ 14 1013.4
30 SE NEW RVR IN 1508   71     240/ 14/ 17 1014.9
30 SE NEW RVR IN 1443      71                N/A     4/ 5   2/11
27 SE WRIGHTSVLE 1508   72 70  220/ 14/ 19 1014.7
5 SE WRIGHTSVLE  1508   71 68  210/ 12/ 19 1014.2
225 S CAPE HAT   1450   72 74  190/ 12/ 14 1017.6    4/12   3/12
41 SE CHARLESTON 1510   73 73  240/ 14/ 17 1015.9

$$




USA.gov is the U.S. government's official web portal to all federal, state and local government web resources and services.